Location: Kaiser
(34.0939°N, 117.4889°W)
Time: 21:53:10
(UTC+00:00)

ALOS - Pass Details

Date: 29 October 2020
Orbit: 683 x 685 km, 97.9° (Epoch: 26 November)

Event Time Altitude Azimuth Distance (km) Brightness Sun altitude
Rises 12:21:16 0° 12° (NNE) 3,051 5.7 -22.5°
Reaches altitude 10° 12:23:31 10° 12° (NNE) 2,132 4.9 -22.0°
Maximum altitude 12:28:11 88° 99° (E) 689 2.2 -21.1°
Drops below altitude 10° 12:32:51 10° 192° (SSW) 2,119 4.7 -20.1°
Sets 12:35:04 0° 193° (SSW) 3,031 5.5 -19.6°
